User: anonymous   Login
Location: Unspecified
(0.0000°N, 0.0000°E)
Time: 08:50:54
(UTC+01:00)
Language:

Sapphire - Orbit

View from above orbital plane
View from above orbital plane
View from above satellite
View from above satellite

Ground track
Ground track

The orbit data is extracted from the following two-line orbital elements,

1 26932U 01043D   18055.58733726 -.00000045 +00000-0 +14442-4 0  9999
2 26932 067.0566 162.6478 0004140 281.4295 078.6341 14.30273060856394
Epoch (UTC): 24 February 2018 14:05:45
Eccentricity: 0.0004140
inclination: 67.0566°
perigee height: 788 km
apogee height: 794 km
right ascension of ascending node: 162.6478°
argument of perigee: 281.4295°
revolutions per day: 14.30273060
mean anomaly at epoch: 78.6341°
orbit number at epoch: 85639

The dashed part of the orbit path shows where the satellite is in the earth's shadow,  

DLR